Location: Street
(51.1247°N, 2.7429°W)
Time: 09:52:47
(UTC+00:00)

Tiros 1 - Pass Details

Date: 05 December 2020
Orbit: 630 x 663 km, 48.4° (Epoch: 21 January)

Event Time Altitude Azimuth Distance (km) Brightness Sun altitude
Rises 17:43:59 0° 278° (W) 2,997 11.8 -14.6°
Reaches altitude 10° 17:46:27 10° 271° (W) 2,080 10.9 -15.0°
Maximum altitude 17:50:55 40° 203° (SSW) 976 8.4 -15.7°
Drops below altitude 10° 17:55:21 10° 134° (SE) 2,060 9.4 -16.3°
Enters shadow 17:55:41 - 133° (SE) 2,180 9.6 -16.4°
Sets 17:57:47 0° 127° (SE) 2,964 - -16.7°
